KSF3-A (55086 NORAD) Tracking and Keplerian Element Data

This shows tracking and keplerian element data for the satellite.

Feedback or suggestion? Click here.




ElementValue
Catalog55086
NameKSF3-A
Epoch Orbit1876
Epoch Day126.51555693
Epoch Year2023
RAAN186.9272
Inclination97.4832
Eccentricity0.001639
Argument of Perigee145.7796
Mean Anonmoly321.2269
Mean Motion15.17141353
Decay Rate9.769E-05
L11 55086U 23001CF 23126.51555693 .00009769 00000+0 49385-3 0 9995
L22 55086 97.4832 186.9272 0016390 145.7796 321.2269 15.17141353 18760



Live tracking and technical data element details for KSF3-A (NORAD 55086). KSF3-A can be tracked NOW for your location showing map with azimuth and elevation plus other details from your city location.







IsCatalogInMostPopularTable: catalog: 55086, numindb: -1

Insert: records affected: 1


GetName: 55086 KSF3-A

Hit Count: inserted at: Mon, 05 Jun 2023 20:54:46 GMT